Location: Albuquerque Trailhead
(34.7934°N, 106.3736°W)
Time: 03:29:37
(UTC+00:00)

Cosmos 841 Rocket - Pass Details

Date: 20 June 2021
Orbit: 747 x 772 km, 74.0° (Epoch: 29 July)

Event Time Altitude Azimuth Distance (km) Brightness Sun altitude
Exits shadow 08:43:21 44° 305° (NW) 1,030 4.1 -27.5°
Drops below altitude 10° 08:47:53 10° 4° (N) 2,269 6.8 -27.1°
Sets 08:50:21 0° 11° (N) 3,196 7.9 -26.8°
